| time (UTC) | temp C | wind direction | speed KPH | gust KPH | rain 1hr cm | rain 24hr cm | rain mn cm | humidity % | barometer mb |
| 20260506133408 | 23 | 54 | 3.2 | 9.7 | 0.00 | 0.28 | 0.05 | 46 | 1008.8 |
| 20260506131902 | 23 | 116 | 3.2 | 11.3 | 0.00 | 0.28 | 0.05 | 46 | 1008.9 |
| 20260506130353 | 23 | 54 | 4.8 | 11.3 | 0.00 | 0.28 | 0.05 | 47 | 1009.1 |
| 20260506124859 | 23 | 217 | 3.2 | 12.9 | 0.00 | 0.28 | 0.05 | 48 | 1009.4 |
| 20260506123352 | 23 | 284 | 0.0 | 9.7 | 0.00 | 0.28 | 0.05 | 47 | 1009.5 |
| 20260506121852 | 22 | 215 | 1.6 | 22.5 | 0.00 | 0.28 | 0.05 | 51 | 1010.1 |
| 20260506120354 | 21 | 258 | 3.2 | 12.9 | 0.00 | 0.28 | 0.05 | 53 | 1010.2 |
| 20260506114848 | 20 | 270 | 3.2 | 12.9 | 0.00 | 0.28 | 0.05 | 54 | 1010.2 |
| 20260506113349 | 22 | 282 | 3.2 | 16.1 | 0.00 | 0.28 | 0.05 | 52 | 1010.2 |
| 20260506111848 | 21 | 300 | 6.4 | 17.7 | 0.00 | 0.28 | 0.05 | 53 | 1010.0 |
| 20260506110348 | 21 | 259 | 0.0 | 20.9 | 0.00 | 0.28 | 0.05 | 54 | 1010.5 |
| 20260506104848 | 21 | 277 | 8.0 | 16.1 | 0.00 | 0.28 | 0.05 | 56 | 1010.4 |
| 20260506103349 | 20 | 240 | 8.0 | 14.5 | 0.00 | 0.28 | 0.05 | 59 | 1010.3 |
| 20260506101853 | 19 | 217 | 6.4 | 16.1 | 0.00 | 0.28 | 0.05 | 61 | 1010.5 |
| 20260506100348 | 20 | 210 | 4.8 | 14.5 | 0.00 | 0.28 | 0.05 | 61 | 1010.5 |
| 20260506094848 | 18 | 273 | 0.0 | 14.5 | 0.00 | 0.28 | 0.05 | 63 | 1010.3 |
| 20260506093348 | 20 | 248 | 6.4 | 24.1 | 0.00 | 0.28 | 0.05 | 62 | 1010.5 |
| 20260506091848 | 17 | 208 | 11.3 | 20.9 | 0.00 | 0.28 | 0.05 | 66 | 1010.7 |
| 20260506090349 | 18 | 252 | 4.8 | 17.7 | 0.00 | 0.28 | 0.05 | 66 | 1010.4 |
| 20260506084848 | 17 | 302 | 0.0 | 16.1 | 0.00 | 0.28 | 0.05 | 67 | 1010.4 |
| 20260506083352 | 17 | 279 | 3.2 | 22.5 | 0.00 | 0.28 | 0.05 | 70 | 1010.3 |
| 20260506081849 | 17 | 258 | 6.4 | 17.7 | 0.00 | 0.28 | 0.05 | 71 | 1010.4 |
| 20260506080411 | 17 | 187 | 6.4 | 16.1 | 0.00 | 0.28 | 0.05 | 72 | 1010.4 |
| 20260506073348 | 16 | 248 | 9.7 | 14.5 | 0.00 | 0.28 | 0.05 | 77 | 1010.2 |
| 20260506071848 | 16 | 298 | 6.4 | 17.7 | 0.00 | 0.28 | 0.05 | 75 | 1010.3 |
| 20260506070349 | 16 | 278 | 4.8 | 20.9 | 0.00 | 0.28 | 0.05 | 79 | 1010.1 |
| 20260506061851 | 13 | 211 | 0.0 | 12.9 | 0.00 | 0.28 | 0.05 | 87 | 1010.0 |
| 20260506060351 | 13 | 225 | 3.2 | 6.4 | 0.00 | 0.28 | 0.05 | 88 | 1010.3 |
| 20260506050409 | 11 | 136 | 0.0 | 3.2 | 0.00 | 0.28 | 0.05 | 98 | 1010.1 |
| 20260506044851 | 10 | 188 | 1.6 | 1.6 | 0.00 | 0.28 | 0.05 | 96 | 1010.0 |
| 20260506043348 | 10 | 189 | 0.0 | 1.6 | 0.00 | 0.28 | 0.05 | 96 | 1010.0 |
| 20260506041847 | 10 | 189 | 0.0 | 0.0 | 0.00 | 0.28 | 0.05 | 96 | 1009.6 |
| 20260506040348 | 10 | 189 | 0.0 | 0.0 | 0.00 | 0.28 | 0.05 | 95 | 1009.5 |
| 20260506034845 | 11 | 190 | 0.0 | 3.2 | 0.00 | 0.25 | 0.05 | 96 | 1009.2 |
| 20260506033344 | 11 | 203 | 0.0 | 1.6 | 0.00 | 0.25 | 0.05 | 96 | 1009.3 |
| 20260506031842 | 10 | 185 | 0.0 | 0.0 | 0.00 | 0.25 | 0.05 | 94 | 1009.2 |
| 20260506030337 | 10 | 185 | 0.0 | 1.6 | 0.00 | 0.25 | 0.05 | 94 | 1009.5 |
| 20260506024810 | 10 | 185 | 0.0 | 0.0 | 0.00 | 0.25 | 0.05 | 93 | 1009.4 |
| 20260506023309 | 11 | 185 | 0.0 | 0.0 | 0.00 | 0.25 | 0.05 | 93 | 1009.5 |
| 20260506021804 | 11 | 185 | 0.0 | 3.2 | 0.00 | 0.25 | 0.05 | 94 | 1009.4 |
| 20260506020303 | 11 | 185 | 3.2 | 12.9 | 0.00 | 0.25 | 0.05 | 95 | 1009.5 |
| 20260506014802 | 11 | 262 | 3.2 | 12.9 | 0.00 | 0.25 | 0.05 | 94 | 1009.8 |
| 20260506013302 | 11 | 233 | 0.0 | 6.4 | 0.00 | 0.25 | 0.05 | 93 | 1009.5 |
| 20260506011759 | 11 | 233 | 1.6 | 4.8 | 0.00 | 0.25 | 0.05 | 93 | 1009.4 |
| 20260506010259 | 11 | 198 | 0.0 | 3.2 | 0.00 | 0.25 | 0.05 | 93 | 1009.2 |
| 20260506004756 | 11 | 8 | 0.0 | 0.0 | 0.03 | 0.25 | 0.05 | 92 | 1009.1 |
| 20260506003312 | 11 | 8 | 0.0 | 12.9 | 0.03 | 0.28 | 0.05 | 93 | 1008.9 |
| 20260506001754 | 12 | 325 | 6.4 | 14.5 | 0.03 | 0.28 | 0.05 | 93 | 1009.0 |
| 20260506000324 | 12 | 333 | 1.6 | 4.8 | 0.03 | 0.28 | 0.05 | 92 | 1009.2 |
| 20260505234754 | 12 | 317 | 0.0 | 6.4 | 0.00 | 0.25 | 0.00 | 90 | 1009.4 |
| 20260505233301 | 12 | 29 | 1.6 | 6.4 | 0.00 | 0.25 | 0.00 | 88 | 1009.3 |
| 20260505231751 | 12 | 32 | 4.8 | 14.5 | 0.00 | 0.25 | 0.00 | 87 | 1009.6 |
| 20260505230254 | 13 | 325 | 1.6 | 16.1 | 0.00 | 0.25 | 0.00 | 86 | 1009.6 |
| 20260505224746 | 13 | 338 | 6.4 | 16.1 | 0.00 | 0.25 | 0.00 | 86 | 1009.5 |
| 20260505223443 | 13 | 323 | 4.8 | 17.7 | 0.00 | 0.25 | 0.00 | 84 | 1009.5 |
| 20260505221745 | 15 | 324 | 8.0 | 12.9 | 0.00 | 0.25 | 0.00 | 82 | 1009.2 |
| 20260505220949 | 15 | 280 | 3.2 | 9.7 | 0.00 | 0.25 | 0.00 | 82 | 1008.9 |
| 20260505220259 | 15 | 280 | 3.2 | 9.7 | 0.00 | 0.25 | 0.00 | 82 | 1008.9 |
| 20260505214740 | 15 | 282 | 3.2 | 12.9 | 0.00 | 0.25 | 0.25 | 85 | 1009.0 |
| 20260505213236 | 14 | 271 | 3.2 | 20.9 | 0.00 | 0.25 | 0.25 | 87 | 1008.7 |
| 20260505211736 | 14 | 225 | 3.2 | 9.7 | 0.00 | 0.25 | 0.25 | 86 | 1008.0 |
| 20260505210235 | 14 | 150 | 0.0 | 3.2 | 0.00 | 0.25 | 0.25 | 85 | 1007.4 |
| 20260505204732 | 15 | 150 | 1.6 | 6.4 | 0.00 | 0.25 | 0.25 | 86 | 1007.4 |
| 20260505203228 | 15 | 92 | 1.6 | 9.7 | 0.00 | 0.25 | 0.25 | 85 | 1007.3 |
| 20260505201724 | 14 | 92 | 3.2 | 11.3 | 0.00 | 0.25 | 0.25 | 85 | 1007.2 |
| 20260505200224 | 14 | 65 | 4.8 | 12.9 | 0.00 | 0.25 | 0.25 | 86 | 1007.1 |
| 20260505194719 | 14 | 343 | 6.4 | 11.3 | 0.00 | 0.25 | 0.25 | 87 | 1007.0 |
| 20260505193211 | 13 | 357 | 3.2 | 11.3 | 0.03 | 0.25 | 0.25 | 89 | 1007.1 |
| 20260505191839 | 13 | 52 | 1.6 | 6.4 | 0.05 | 0.25 | 0.25 | 90 | 1006.8 |
| 20260505190351 | 13 | 44 | 1.6 | 4.8 | 0.10 | 0.25 | 0.25 | 89 | 1007.0 |
| 20260505184659 | 14 | 41 | 1.6 | 9.7 | 0.13 | 0.25 | 0.25 | 88 | 1007.0 |
| 20260505183155 | 14 | 354 | 0.0 | 6.4 | 0.15 | 0.23 | 0.23 | 90 | 1007.7 |
| 20260505181653 | 14 | 323 | 0.0 | 4.8 | 0.15 | 0.20 | 0.20 | 85 | 1008.3 |
| 20260505180152 | 15 | 271 | 0.0 | 12.9 | 0.13 | 0.15 | 0.15 | 79 | 1008.8 |
| 20260505174656 | 15 | 253 | 11.3 | 25.7 | 0.10 | 0.13 | 0.13 | 78 | 1008.9 |
| 20260505173154 | 16 | 203 | 6.4 | 22.5 | 0.05 | 0.10 | 0.10 | 77 | 1008.6 |
| 20260505171645 | 17 | 213 | 9.7 | 17.7 | 0.00 | 0.05 | 0.05 | 70 | 1008.1 |
| 20260505170141 | 18 | 170 | 3.2 | 24.1 | 0.00 | 0.05 | 0.05 | 63 | 1008.0 |
| 20260505164654 | 21 | 160 | 6.4 | 20.9 | 0.00 | 0.03 | 0.03 | 47 | 1008.3 |
| 20260505163123 | 22 | 10 | 0.0 | 1.6 | 0.00 | 0.03 | 0.03 | 44 | 1007.6 |
| 20260505161623 | 22 | 10 | 0.0 | 4.8 | 0.00 | 0.03 | 0.03 | 40 | 1007.7 |
| 20260505160121 | 23 | 350 | 0.0 | 3.2 | 0.00 | 0.03 | 0.03 | 39 | 1007.5 |
| 20260505153121 | 26 | 130 | 0.0 | 6.4 | 0.00 | 0.03 | 0.03 | 33 | 1007.9 |
| 20260505151605 | 26 | 101 | 0.0 | 9.7 | 0.00 | 0.03 | 0.03 | 34 | 1007.8 |
| 20260505150105 | 27 | 199 | 3.2 | 11.3 | 0.00 | 0.03 | 0.03 | 34 | 1007.7 |